Friday Harbor, WA

11:21 AM PDT on April 28, 2017 (GMT -0700)
Friday Harbor

Weather History for KFHR - March, 2013

Change the Weather History Date:

Sunday, March 10, 2013

  Actual Average Record
Temperature  
Mean Temperature 41 °F -  
Max Temperature 45 °F 47 °F 63 °F (2012)
Min Temperature 37 °F 36 °F 21 °F (2009)
Degree Days  
Heating Degree Days 24    
Moisture  
Dew Point 40 °F    
Average Humidity 91    
Maximum Humidity 100    
Minimum Humidity 81    
Precipitation  
Precipitation 0.00 in - - ()
Sea Level Pressure  
Sea Level Pressure 30.46 in    
Wind  
Wind Speed 3 mph (SSW)    
Max Wind Speed 7 mph    
Max Gust Speed -    
Visibility 10 miles    
Events Rain    
Averages and records for this station are not official NWS values.
T = Trace of Precipitation, MM = Missing Value Source: NWS Daily Summary

Daily Weather History Graph

Daily Weather History Graph

Search for Another Location

Airport or City:

Trip Planner

Search our weather history database for the weather conditions in past years. The results will help you decide how hot, cold, wet, or windy it might be!

Date:

Astronomy

Mar. 10, 2013 Rise Set
Actual Time 7:34 AM PDT 7:10 PM PDT
Civil Twilight 7:03 AM PDT 7:41 PM PDT
Nautical Twilight 6:27 AM PDT 8:18 PM PDT
Astronomical Twilight 5:50 AM PDT 8:55 PM PDT
Moon 6:40 AM PDT (3/10) 6:24 PM PDT (3/10)
Length of Visible Light 12h 38m
Length of Day
11h 35m
Waning Crescent, 1% of the Moon is Illuminated
Mar 10
Waning Crescent
Mar 11
New
Mar 19
First Quarter
Mar 27
Full
Apr 2
Last Quarter

Hourly Weather History & Observations

Time (PDT) Temp. Windchill Dew Point Humidity Pressure Visibility Wind Dir Wind Speed Gust Speed Precip Events Conditions
1:53 AM 39.9 °F 37.8 °F 39.0 °F 97% 30.49 in 10.0 mi North 3.5 mph - N/A   Overcast
3:53 AM 37.9 °F - 37.9 °F 100% 30.49 in 10.0 mi Calm Calm - N/A   Overcast
5:53 AM 37.9 °F - 37.9 °F 100% 30.49 in 10.0 mi Calm Calm - N/A   Overcast
6:53 AM 39.9 °F - 37.9 °F 93% 30.46 in 10.0 mi Calm Calm - N/A   Overcast
7:53 AM 41.0 °F - 39.0 °F 93% 30.47 in 10.0 mi Calm Calm - N/A   Overcast
8:53 AM 41.0 °F - 39.9 °F 96% 30.48 in 10.0 mi Calm Calm - 0.00 in Rain Light Rain
9:53 AM 42.1 °F 38.4 °F 39.9 °F 92% 30.48 in 10.0 mi SW 5.8 mph - 0.00 in Rain Light Rain
10:07 AM 42.8 °F 41.1 °F 39.2 °F 87% 30.47 in 10.0 mi WSW 3.5 mph - 0.00 in Rain Light Rain
10:53 AM 42.1 °F - 41.0 °F 96% 30.48 in 10.0 mi Calm Calm - 0.00 in Rain Light Rain
11:53 AM 43.0 °F 41.3 °F 41.0 °F 93% 30.48 in 10.0 mi WSW 3.5 mph - 0.00 in   Overcast
12:53 PM 43.0 °F 40.3 °F 39.9 °F 89% 30.47 in 10.0 mi South 4.6 mph - N/A   Overcast
1:53 PM 45.0 °F 41.2 °F 39.9 °F 82% 30.46 in 10.0 mi South 6.9 mph - N/A   Overcast
2:53 PM 44.1 °F 40.1 °F 39.9 °F 85% 30.45 in 10.0 mi South 6.9 mph - N/A   Overcast
3:53 PM 44.1 °F 40.8 °F 39.9 °F 85% 30.45 in 10.0 mi SSW 5.8 mph - N/A   Overcast
4:53 PM 44.1 °F 42.5 °F 39.9 °F 85% 30.45 in 10.0 mi Variable 3.5 mph - N/A   Overcast
5:39 PM 44.6 °F 40.7 °F 39.2 °F 81% 30.44 in 10.0 mi South 6.9 mph - N/A   Overcast
5:53 PM 44.1 °F 41.5 °F 39.9 °F 85% 30.44 in 10.0 mi SSW 4.6 mph - N/A   Overcast
6:53 PM 43.0 °F 39.5 °F 39.9 °F 89% 30.44 in 10.0 mi SSW 5.8 mph - N/A   Overcast
7:15 PM 42.8 °F - 41.0 °F 93% 30.44 in 10.0 mi Calm Calm - N/A   Overcast
7:24 PM 42.8 °F 40.1 °F 39.2 °F 87% 30.44 in 10.0 mi SW 4.6 mph - N/A   Overcast
7:53 PM 42.1 °F 40.2 °F 39.9 °F 92% 30.44 in 10.0 mi SSW 3.5 mph - N/A   Overcast
8:53 PM 41.0 °F - 39.0 °F 93% 30.44 in 10.0 mi Calm Calm - N/A   Overcast
9:28 PM 41.0 °F - 39.2 °F 93% 30.44 in 10.0 mi Calm Calm - N/A   Overcast
9:53 PM 42.1 °F - 41.0 °F 96% 30.44 in 10.0 mi Calm Calm - N/A   Overcast
10:53 PM 43.0 °F 41.3 °F 39.9 °F 89% 30.44 in 10.0 mi South 3.5 mph - N/A   Overcast
12:53 AM 43.0 °F 40.3 °F 39.9 °F 89% 30.44 in 10.0 mi SSE 4.6 mph - N/A   Overcast